Location: Archemont
(49.1579°N, 1.7598°E)
Time: 10:42:35
(UTC+00:00)

Vanguard 1 Rocket - Pass Details

Date: 21 April 2024
Orbit: 650 x 4220 km, 34.3° (Epoch: 29 May)

Event Time Altitude Azimuth Distance (km) Brightness Sun altitude
Rises 20:07:37 0° 242° (WSW) 3,317 10.7 -11.4°
Reaches altitude 10° 20:10:04 10° 229° (SW) 2,617 9.9 -11.7°
Maximum altitude 20:15:08 26° 173° (S) 2,217 9.0 -12.4°
Enters shadow 20:20:25 16° 131° (SE) 3,416 9.6 -13.1°
